Regional Weather Roundup
Issued by NWS Newport/Morehead, NC

Current Version | Previous Version | Text Only | Print | Product List | Glossary Off
Versions: 1 2 3 4 5 6 7 8 9 10 11 12 13 14 15 16 17 18 19 20 21 22 23 24 25 26 27 28 29 30 31 32 33 34 35 36 37 38 39 40 41 42 43 44 45 46 47 48 49 50
000 ASUS42 KMHX 280024 RWRMHX WEATHER ROUNDUP FOR EASTERN NORTH CAROLINA NATIONAL WEATHER SERVICE NEWPORT/MOREHEAD CITY NC 800 PM EDT MON JUL 27 2015 NOTE: "FAIR" INDICATES FEW OR NO CLOUDS BELOW 12,000 FEET WITH NO SIGNIFICANT WEATHER AND/OR OBSTRUCTIONS TO VISIBILITY NCZ015>017-031-032-045>047-102-103-280100- NORTH COAST CITY SKY/WX TMP DP RH WIND PRES REMARKS EDENTON N/A 81 69 68 S8 30.00R ELIZABETH CITY MOCLDY 81 71 71 SE7 30.00R KITTY HAWK MOCLDY 80 68 66 SE6 29.99F MANTEO MOCLDY 78 70 75 S6 30.01S $$ NCZ045>047-081-094-103-104-280100- CENTRAL COAST CITY SKY/WX TMP DP RH WIND PRES REMARKS FRISCO MOCLDY 81 70 69 SE9 30.01R SWANQUARTER N/A 81 N/A N/A SE6 29.97S $$ NCZ095-097-098-100-101-280100- SOUTHERN COAST CITY SKY/WX TMP DP RH WIND PRES REMARKS BEAUFORT CLOUDY 81 72 74 SE7 29.99R CEDAR ISLAND N/A 81 N/A N/A SE8 30.03S JACKSONVILLE CLOUDY 81 71 71 SE6 29.98R PINEY ISLAND MOCLDY N/A N/A N/A SE8 29.99R WILMINGTON MOCLDY 82 72 71 SE7 29.97S $$ NCZ011>013-027>030-043-044-078>080-089-090>093-098-280100- COASTAL PLAIN CITY SKY/WX TMP DP RH WIND PRES REMARKS AHOSKIE MOCLDY 80 72 74 SE3 29.99S CLINTON PTCLDY 83 72 69 SE3 29.98R ELIZABETHTOWN CLEAR 81 70 68 CALM 29.98R GOLDSBORO PTCLDY 84 75 73 SE7 29.96R GREENVILLE PTCLDY 81 72 74 SE5 30.01R HAVELOCK CLOUDY 80 70 71 SE3 30.00R KENANSVILLE PTCLDY 81 70 69 CALM 29.99R KINSTON MOCLDY 82 72 69 SE6 29.99R NEW BERN MOCLDY 81 70 69 S3 30.00R RICHLANDS MOCLDY 81 68 65 SE5 29.99R ROCKY MOUNT PTCLDY 85 70 60 CALM 29.98R WASHINGTON PTCLDY 79 70 75 CALM 30.01R WHITEVILLE CLEAR 82 73 73 SE3 29.97R $$ AMZ130-135-150-152-154-156-158-170-250-252-270-ANZ085-086-088-633-658-670-280100- MARINE OBSERVATIONS STATION/POSITION TIME TEMP WIND PRES WAVE SWELL AIR SEA DIR/SP/G HT/PER HT/PER (UTC) (F) (DEG/KT/KT) (MB) (FT/S) (FT/S) CHESAPEAKE LIGHT 0000 80 170/ 18/ 20 1016.0 64 E VA BEACH 2350 80 80 150/ 10/ 10 1015.7 2/11 2/11 DUCK 0000 80 80 140/ 13/ 15 1015.1 2 E DUCK 0011 81 N/A 2/12 2/12 OREGON INLET 0000 79 84 130/ 5/ 6 1016.1 13E OREGON INLT 0000 80 N/A 3/11 2/11 HATTERAS CG 0000 81 83 130/ 6/ 9 1015.7 DIAMOND BUOY NOT AVBL CAPE LOOKOUT 0000 81 130/ 10/ 11 1015.3 BEAUFORT LAB 0000 81 81 130/ 9/ 10 1014.8 30 SE NEW RVR IN NOT AVBL 27 SE WRIGHTSVLE 0000 79 82 140/ 14/ 16 N/A 5 SE WRIGHTSVLE 2308 83 81 130/ 10/ 16 1014.7 225 S CAPE HAT 2350 81 82 250/ 6/ 10 1015.6 4/ 6 3/ 6 41 SE CHARLESTON 2350 83 84 90/ 12/ 14 1013.0 3/ 6 2/ 6 $$

USA.gov is the U.S. government's official web portal to all federal, state and local government web resources and services.